Location: Unspecified
(0.0000°N, 0.0000°E)
Time: 16:19:56
(UTC+00:00)

Altair - Pass Details

Date: 23 November 2019
Orbit: 1502 x 1682 km, 47.2° (Epoch: 12 December)

Event Time Altitude Azimuth Distance (km) Brightness Sun altitude
Rises 21:32:46 0° 208° (SSW) 4,852 10.6 -51.5°
Reaches altitude 10° 21:36:08 10° 202° (SSW) 3,840 9.9 -52.2°
Enters shadow 21:39:24 23° 191° (SSW) 2,928 9.1 -52.8°
